STARLINK-34329, 64256

Orbit data source: Space-Track

STARLINK-34329, 64256 is a payload satellite owned by SpaceX/Seattle (US) in LEO that was launched on Wed, 04 Jun 2025 UTC via an FALCON 9 launch vehicle from the Air Force Western Test Range (AFWTR). Payload-class satellites include a variety of spacecraft equipped with specific instruments for various scientific and technological missions. These include communications satellites like Starlink; space stations such as the ISS; scientific satellites like the Hubble; Earth observation satellites from companies like Planet Labs, Umbra, and HawkEye 360; GPS; miniature CubeSats for education and research; and military/defense satellites.

Loading next visibility...
Identifier
64256, 2025-120A
Orbit
LEO
Country
Flag of USUS
Related business
Manufacturer
SpaceX/Seattle
Mission
Operational Commercial Communications
Bus & Motor
STARLINK V2MO, Unknown motor
Mass
575 kg wet, ~530 kg dry
Launch date (UTC)
2025-06-04 (1 year ago)
Launch vehicle
FALCON 9
Launch site
Air Force Western Test Range (AFWTR)
Object type
Payload
Rocket body
Debris
Shape & HBR
Box + 2 Pan, 17.7 m
Radar Cross Section
36.964 m², Large (>1 m²)

Expand to show TLE details & history
Last TLE update: 22 hours ago

TLE from 22 hours ago
0 STARLINK-34329
1 64256U 25120A   26170.93054613  .00020656  00000-0  62053-3 0  9998
2 64256  53.1592 358.6817 0000801  99.1467 260.9626 15.34413440 59614
Epoch: 2026-06-19T22:19Z
TLE epoch observation values (Epoch: 2026-06-19T22:19:59.185Z)
Latitude
-0.00005°
Longitude
115.53261°
Altitude
463.651 km
Speed
7.636 km/s
True Right ascension
23h 54m 43s
True Declination
0° 00' 00"
Sunlit
Object was in daylight at epoch
Visualization orbit readout
Latitude
Unknown
Longitude
Unknown
Altitude
Unknown
Speed
Unknown
Apparent Right ascension
Unknown
Apparent Declination
Unknown
Sunlit
N/A
Visualization observer readout
Local Sidereal Time
07:12:36
Azimuth
Unknown
Elevation
Unknown
Doppler factor
Unknown
Orbital elements
Apogee altitude
463.468 km
Perigee altitude
462.372 km
Semi-major axis
6,841.057 km
Eccentricity
0.00008
Inclination
53.1592°
RAAN
358.6817°
Arg. of periapsis
99.1467°
True anomaly
260.95354°
Mean anomaly
260.9626°
Eccentric anomaly
260.95807°
Mean motion
3.83582 °/min
Orbital period
93.85 mins
BSTAR
0.00062053
Loading maneuver chart data...
Computing Atmospheric mass density...
Loading historical data...
Loading historical data...
Loading historical data...
Loading historical data...
Loading historical data...
Loading historical data...
Loading historical data...

Documentation

Showing up to 5 results
|